Weather Roundup
Issued by NWS

Home | Current Version | Previous Version | Graphics & Text | Print | Product List | Glossary Off
Versions: 1 2 3 4 5 6 7 8 9 10 11 12 13 14 15 16 17 18 19 20 21 22 23 24 25 26 27 28 29 30 31 32 33 34 35 36 37 38 39 40 41 42 43 44 45 46 47 48 49 50

546
NZUS93 KARX 291859
HRRWXR

CURRENT HOURLY OBSERVATIONS ACROSS
MUCH OF THE UPPER MISSISSIPPI VALLEY
NATIONAL WEATHER SERVICE LA CROSSE WI
200 PM CDT THU SEP 29 2016


...SOUTHEAST MINNESOTA...


CITY           SKY/WX    TMP DP  RH WIND       PRES   REMARKS
ROCHESTER      SUNNY     65  52  62 N9        30.42F
ROCHESTER/MAYO NOT AVBL
WINONA         SUNNY     66  54  63 NW7       30.40F
AUSTIN         SUNNY     66  48  52 N7        30.40F
ALBERT LEA     SUNNY     66  46  48 NE8       30.42F
DODGE CENTER   SUNNY     66  48  52 NE3       30.42F
PRESTON        SUNNY     64  51  63 NE8       30.40F
OWATONNA       SUNNY     63  48  59 N5        30.44F
FARIBAULT      SUNNY     64  52  63 N5        30.44F
$$

...ELSEWHERE IN MINNESOTA...


CITY           SKY/WX    TMP DP  RH WIND       PRES   REMARKS
MINNEAPOLIS    MOSUNNY   64  50  60 VRB3      30.45F
INTNL FALLS    CLOUDY    58  47  66 CALM      30.51F
DULUTH         MOSUNNY   62  49  62 E13       30.50F
RED WING       SUNNY     68  48  49 CALM      30.41F
REDWOOD FALLS  PTSUNNY   64  47  53 VRB3      30.44F
MANKATO        SUNNY     63  50  62 NE5       30.44F
WORTHINGTON    PTSUNNY   64  49  57 NE8       30.44F
FAIRMONT       SUNNY     65  50  58 VRB7      30.44F
$$

...SOUTHWEST WISCONSIN...


CITY           SKY/WX    TMP DP  RH WIND       PRES   REMARKS
LA CROSSE      SUNNY     71  54  54 NW10      30.37F
PRAIRIE DU CHI SUNNY     70  50  49 NW13      30.32F
BOSCOBEL       SUNNY     75  49  39 NE10G18   30.32F
LONE ROCK      NOT AVBL
PLATTEVILLE    SUNNY     71  51  47 N16G23    30.30F
FORT MC COY    SUNNY     68  53  58 N8        30.38F
MAUSTON-NEW LI NOT AVBL
VIROQUA        FAIR      69  51  53 NE9G17    30.37F
WIS DELLS      SUNNY     71  45  39 NE14G20   30.33F
$$

...ELSEWHERE IN WISCONSIN...


CITY           SKY/WX    TMP DP  RH WIND       PRES   REMARKS
MILWAUKEE      CLOUDY    63  57  81 N20G28    30.26F
MADISON        MOSUNNY   71  55  56 NE21G29   30.29F
GREEN BAY      SUNNY     69  57  65 NE18G29   30.35F
EAU CLAIRE     NOT AVBL
BLACK RVR FLS  FAIR      69  51  51 N6        30.39F
MEDFORD        SUNNY     66  51  57 E7        30.42F
WAUSAU         SUNNY     69  49  48 NE12G20   30.38F
WIS RAPIDS     SUNNY     73  53  49 NE12      30.38F
MARSHFIELD     SUNNY     70  51  51 NE10      30.39F
RICE LAKE      NOT AVBL
$$

...NORTHEAST IOWA...


CITY           SKY/WX    TMP DP  RH WIND       PRES   REMARKS
WATERLOO       SUNNY     72  50  45 N17G23    30.33F
DUBUQUE        SUNNY     71  49  45 NE21G26   30.29F
DECORAH        SUNNY     68  52  56 N12       30.35F
MASON CITY     SUNNY     69  45  41 NE12G17   30.40F
CHARLES CITY   SUNNY     70  46  43 N12G18    30.38F
OELWEIN        SUNNY     72  48  43 N12G20    30.34F
$$

...ELSEWHERE IN IOWA...


CITY           SKY/WX    TMP DP  RH WIND       PRES   REMARKS
DES MOINES     MOSUNNY   72  49  44 N13       30.35F
IOWA CITY      SUNNY     74  49  41 N14G23    30.28F
FORT DODGE     MOSUNNY   63  54  72 N7        30.42F
MARSHALLTOWN   SUNNY     72  51  47 N17       30.34F
CEDAR RAPIDS   SUNNY     73  49  42 NE18G28   30.28F
$$

...NORTHERN ILLINOIS...


CITY           SKY/WX    TMP DP  RH WIND       PRES   REMARKS
CHICAGO-OHARE  LGT RAIN  63  59  87 N15       30.18S
CHICAGO-MIDWAY PTSUNNY   66  59  78 NE21      30.16S
MOLINE         SUNNY     74  52  46 N15G24    30.23F
ROCKFORD       CLOUDY    69  55  60 NE21G32   30.24S
PEORIA         CLOUDY    66  55  67 N7        30.18S
$$

NOTE: "FAIR" INDICATES FEW OR NO CLOUDS BELOW 12,000 FEET WITH NO
SIGNIFICANT WEATHER AND/OR OBSTRUCTIONS TO VISIBILITY. WIND
SPEEDS ARE IN MILES-PER-HOUR.




USA.gov is the U.S. government's official web portal to all federal, state and local government web resources and services.